Weather History for Jersey, United Kingdom

Change the Weather History Date:

Sunday, December 16, 2012

  Actual Average Record
Temperature  
Mean Temperature 46 °F -  
Max Temperature 50 °F 45 °F 54 °F (2013)
Min Temperature 43 °F 39 °F 30 °F (1997)
Degree Days  
Heating Degree Days 18    
Moisture  
Dew Point 45 °F    
Average Humidity 88    
Maximum Humidity 93    
Minimum Humidity 81    
Precipitation  
Precipitation 0.00 in - - ()
Sea Level Pressure  
Sea Level Pressure 29.61 in    
Wind  
Wind Speed 18 mph ()    
Max Wind Speed 28 mph    
Max Gust Speed 33 mph    
Visibility 6.9 miles    
Events Rain , Hail , Thunderstorm    
Averages and records for this station are not official NWS values.
T = Trace of Precipitation, MM = Missing Value Source: Averaged Metar Reports

Daily Weather History Graph

Daily Weather History Graph

Search for Another Location

Airport:

Trip Planner

Search our weather history database for the weather conditions in past years. The results will help you decide how hot, cold, wet, or windy it might be!

Date:

Astronomy

Dec. 16, 2012 Rise Set
Actual Time 7:58 AM GMT 4:11 PM GMT
Civil Twilight 7:20 AM GMT 4:48 PM GMT
Nautical Twilight 6:39 AM GMT 5:29 PM GMT
Astronomical Twilight 6:00 AM GMT 6:08 PM GMT
Moon 10:07 AM GMT (12/16) 8:25 PM GMT (12/16)
Length of Visible Light 9h 28m
Length of Day
8h 12m
Waxing Crescent, 14% of the Moon is Illuminated
Dec 16
Waxing Crescent
Dec 20
First Quarter
Dec 28
Full
Jan 5
Last Quarter
Jan 11
New

Hourly Weather History & Observations

Time (GMT) Temp. Windchill Dew Point Humidity Pressure Visibility Wind Dir Wind Speed Gust Speed Precip Events Conditions
12:00 AM 48 °F - 44 °F 81% 29.59 in 16 mi SW 19.6 mph - - Rain Light Rain Showers
3:00 AM 46 °F - 43 °F 86% 29.62 in 11 mi WSW 27.6 mph - - Hail Heavy Small Hail
3:50 AM 44.6 °F 37.8 °F 42.8 °F 93% 29.59 in 6.2 mi WSW 15.0 mph - N/A   Scattered Clouds
4:20 AM 44.6 °F 36.1 °F 42.8 °F 93% 29.59 in 6.2 mi WSW 21.9 mph - N/A   Scattered Clouds
4:50 AM 46.4 °F 38.1 °F 42.8 °F 87% 29.59 in 6.2 mi WSW 24.2 mph - N/A   Partly Cloudy
5:20 AM 46.4 °F 38.3 °F 44.6 °F 93% 29.62 in 6.2 mi WSW 23.0 mph - N/A Rain Light Rain Showers
5:50 AM 46.4 °F 38.7 °F 44.6 °F 93% 29.62 in 6.2 mi WSW 20.7 mph - N/A   Scattered Clouds
6:00 AM 47 °F - 45 °F 89% 29.64 in 11 mi WSW 19.6 mph - - Rain Light Rain Showers
6:20 AM 46.4 °F 39.5 °F 44.6 °F 93% 29.62 in 6.2 mi WSW 17.3 mph - N/A   Scattered Clouds
6:50 AM 48.2 °F - 44.6 °F 87% 29.62 in 6.2 mi WSW 23.0 mph - N/A   Partly Cloudy
7:20 AM 46.4 °F 39.2 °F 44.6 °F 93% 29.62 in 6.2 mi WSW 18.4 mph - N/A   Partly Cloudy
7:50 AM 48.2 °F - 44.6 °F 87% 29.65 in 6.2 mi SW 21.9 mph - N/A   Partly Cloudy
8:20 AM 48.2 °F - 44.6 °F 87% 29.65 in 6.2 mi SW 17.3 mph - N/A   Partly Cloudy
8:50 AM 48.2 °F - 44.6 °F 87% 29.65 in 6.2 mi WSW 17.3 mph - N/A   Partly Cloudy
9:00 AM 48 °F - 44 °F 82% 29.66 in 7 mi WSW 17.3 mph - - Rain Light Rain Showers
9:20 AM 48.2 °F - 44.6 °F 87% 29.65 in 6.2 mi WSW 18.4 mph - N/A   Partly Cloudy
9:50 AM 48.2 °F - 44.6 °F 87% 29.65 in 6.2 mi SW 16.1 mph - N/A   Scattered Clouds
10:20 AM 48.2 °F - 44.6 °F 87% 29.65 in 6.2 mi SW 17.3 mph - N/A   Scattered Clouds
10:50 AM 50.0 °F - 46.4 °F 87% 29.65 in 6.2 mi SW 16.1 mph - N/A Rain Light Rain Showers
11:20 AM 50.0 °F - 46.4 °F 87% 29.65 in 6.2 mi SW 12.7 mph - N/A   Mostly Cloudy
11:50 AM 48.2 °F - 46.4 °F 93% 29.62 in 6.2 mi SSW 11.5 mph - N/A   Mostly Cloudy
12:00 PM 49 °F - 46 °F 85% 29.65 in 9 mi SSW 15.0 mph - - Rain Light Rain Showers
12:20 PM 48.2 °F - 46.4 °F 93% 29.62 in 6.2 mi WSW 20.7 mph - N/A Rain Light Rain Showers
12:50 PM 48.2 °F - 44.6 °F 87% 29.62 in 6.2 mi SW 11.5 mph - N/A   Mostly Cloudy
1:20 PM 50.0 °F - 46.4 °F 87% 29.59 in 6.2 mi SSW 17.3 mph - N/A   Partly Cloudy
1:50 PM 48.2 °F - 44.6 °F 87% 29.59 in 6.2 mi SSW 13.8 mph - N/A   Partly Cloudy
2:20 PM 48.2 °F - 44.6 °F 87% 29.59 in 6.2 mi SSW 17.3 mph - N/A   Partly Cloudy
2:50 PM 50.0 °F - 46.4 °F 87% 29.59 in 6.2 mi SW 15.0 mph - N/A   Partly Cloudy
3:00 PM 50 °F - 46 °F 81% 29.60 in 12 mi SW 17.3 mph - -   Partly Cloudy
3:20 PM 50.0 °F - 46.4 °F 87% 29.59 in 6.2 mi SSW 17.3 mph - N/A   Partly Cloudy
3:50 PM 50.0 °F - 46.4 °F 87% 29.59 in 6.2 mi SSW 15.0 mph - N/A Thunderstorm Scattered Clouds
4:20 PM 50.0 °F - 46.4 °F 87% 29.59 in 6.2 mi SSW 13.8 mph - N/A   Scattered Clouds
4:50 PM 50.0 °F - 46.4 °F 87% 29.59 in 6.2 mi SW 16.1 mph - N/A   Mostly Cloudy
5:20 PM 48.2 °F - 42.8 °F 82% 29.59 in 3.7 mi WNW 23.0 mph - N/A Rain , Thunderstorm Heavy Thunderstorms and Rain
5:50 PM 46.4 °F 39.8 °F 44.6 °F 93% 29.59 in 6.2 mi WSW 16.1 mph - N/A   Mostly Cloudy
6:00 PM 46 °F - 44 °F 90% 29.62 in 9 mi WSW 15.0 mph - - Thunderstorm Light Thunderstorm
6:20 PM 48.2 °F - 44.6 °F 87% 29.59 in 6.2 mi WSW 16.1 mph - N/A   Mostly Cloudy
6:50 PM 48.2 °F - 44.6 °F 87% 29.59 in 6.2 mi WSW 23.0 mph - N/A   Scattered Clouds
7:20 PM 48.2 °F - 44.6 °F 87% 29.59 in 6.2 mi WSW 23.0 mph - N/A   Partly Cloudy
7:50 PM 48.2 °F - 44.6 °F 87% 29.59 in 6.2 mi WSW 21.9 mph - N/A   Partly Cloudy
8:20 PM 48.2 °F - 44.6 °F 87% 29.59 in 6.2 mi SW 24.2 mph - N/A   Scattered Clouds
8:50 PM 48.2 °F - 46.4 °F 93% 29.62 in 6.2 mi WSW 24.2 mph - N/A   Mostly Cloudy
9:00 PM 49 °F - 46 °F 83% 29.62 in 9 mi SW 24.2 mph - -   Mostly Cloudy
9:20 PM 48.2 °F - 44.6 °F 87% 29.62 in 6.2 mi WSW 20.7 mph 33.4 mph N/A   Mostly Cloudy
9:50 PM 50.0 °F - 46.4 °F 87% 29.62 in 6.2 mi WSW 16.1 mph - N/A   Mostly Cloudy